COSMOS 2251 DEB, 34797

Orbit data source: Space-Track

COSMOS 2251 DEB, 34797 is space debris in LEO originally from a launch on Wed, 16 Jun 1993 UTC launched from the Plesetsk Missile And Space Complex (PKMTR). The debris from Iridium 33, an American commercial communications satellite, has been tracked extensively since its accidental collision with the defunct Russian satellite Cosmos 2251 in 2009. This event, occurring at high speed in low Earth orbit (LEO), generated thousands of pieces of space debris, significantly increasing the risk of further collisions. The Iridium 33 debris cloud has impacted space traffic management and orbital debris mitigation strategies, making it a subject of ongoing study in space situational awareness.

Loading next visibility...
Identifier
34797, 1993-036ABA
Orbit
LEO
Country
Flag of CISCIS
Related business
Manufacturer
Unknown
Mission
Spacecraft
Bus & Motor
Unknown
Mass
Unknown
Launch date (UTC)
1993-06-16 (33 years ago)
Launch vehicle
Unknown
Launch site
Plesetsk Missile And Space Complex (PKMTR)
Object type
Payload
Rocket body
Debris
Shape & HBR
Unknown shape, 0.1 m
Radar Cross Section
Small (<0.1 m²)

Expand to show TLE details & history
Last TLE update: 3 days ago

TLE from 3 days ago
0 COSMOS 2251 DEB
1 34797U 93036ABA 25352.56398953  .00005830  00000-0  16985-2 0  9993
2 34797  73.9783  89.1324 0071374 201.7042 158.1087 14.42903821874995
Epoch: 2025-12-18T13:32Z
TLE epoch observation values (Epoch: 2025-12-18T13:32:08.695Z)
Latitude
Longitude
158.67848°
Altitude
798.795 km
Speed
7.43 km/s
True Right ascension
05h 56m 31s
True Declination
0° 00' 00"
Sunlit
Object was in full shadow at epoch
Visualization orbit readout
Latitude
Unknown
Longitude
Unknown
Altitude
Unknown
Speed
Unknown
Apparent Right ascension
Unknown
Apparent Declination
Unknown
Sunlit
N/A
Visualization observer readout
Local Sidereal Time
11:41:10
Azimuth
Unknown
Elevation
Unknown
Doppler factor
Unknown
Orbital elements
Apogee altitude
797.393 km
Perigee altitude
695.69 km
Semi-major axis
7,124.678 km
Eccentricity
0.00714
Inclination
73.9783°
RAAN
89.1324°
Arg. of periapsis
201.7042°
True anomaly
158.41114°
Mean anomaly
158.1087°
Eccentric anomaly
158.26017°
Mean motion
3.60907 °/min
Orbital period
99.75 mins
BSTAR
0.0016985
Loading maneuver chart data...
Computing Atmospheric mass density...
Loading historical data...
Loading historical data...
Loading historical data...
Loading historical data...
Loading historical data...
Loading historical data...
Loading historical data...

Documentation

Showing up to 5 results
|